Regional Weather Roundup
Issued by NWS

Home | Current Version | Previous Version | Graphics & Text | Print | Product List | Glossary On
Versions: 1 2 3 4 5 6 7 8 9 10 11 12 13 14 15 16 17 18 19 20 21 22 23 24 25 26 27 28 29 30 31 32 33 34 35 36 37 38 39 40 41 42 43 44 45 46 47 48 49 50
000
ASUS44 KMEG 011700
RWRTN
TENNESSEE HOURLY STATE WEATHER ROUNDUP
NATIONAL WEATHER SERVICE MEMPHIS TN
1100 AM CST SUN FEB 01 2015

TNZ002-004-019-021-049-052-054-088>092-011800-
WEST TENNESSEE

CITY           SKY/WX    TMP DP  RH WIND       PRES   REMARKS
MEMPHIS INTL   LGT RAIN  57  54  89 S20G26    29.80F FOG
NWS MEMPHIS      N/A     54 N/A N/A MISG        N/A
JACKSON        LGT RAIN  52  49  89 S17G26    29.80F
DYERSBURG      CLOUDY    52  39  62 S10G16    29.79F
UNION CITY     CLOUDY    46  46 100 S12       29.76F
PARIS          CLOUDY    46  45  93 S16       29.78F
LEXINGTON      CLOUDY    48  46  93 S13       29.82F
SAVANNAH       CLOUDY    50  50 100 S15       29.86F
$$

TNZ008-025-027-028-033-062-065-066-011800-
NORTH MIDDLE TENNESSEE

CITY           SKY/WX    TMP DP  RH WIND       PRES   REMARKS
NASHVILLE      CLOUDY    46  42  86 S16       29.87F
CLARKSVILLE    RAIN      45  43  93 S13G21    29.81F FOG
COOKEVILLE     PTSUNNY   46  36  66 S13       29.94F
CROSSVILLE     CLOUDY    45  31  58 S12G23    30.01F
$$

TNZ061-075-076-078-094-096-097-011800-
SOUTH MIDDLE TENNESSEE

CITY           SKY/WX    TMP DP  RH WIND       PRES   REMARKS
FAYETTEVILLE   CLOUDY    45  39  81 MISG      29.96F
TULLAHOMA      CLOUDY    46  41  81 S12       29.96F
WINCHESTER     CLOUDY    46  41  81 SE10      29.98F
COLUMBIA       CLOUDY   N/A N/A N/A S15G25    29.86F
SHELBYVILLE    CLOUDY    48  43  81 S13       29.93F
$$

TNZ017-018-042-046-047-011800-
NORTHEAST TENNESSEE

CITY           SKY/WX    TMP DP  RH WIND       PRES   REMARKS
TRI CITIES     CLOUDY    46  19  34 CALM      30.06F
ELIZABETHTON   SUNNY     46  21  36 VRB3      30.05F
$$

TNZ012-013-036-069-073-074-011800-
CENTRAL EAST TENNESSEE

CITY           SKY/WX    TMP DP  RH WIND       PRES   REMARKS
KNOXVILLE      CLOUDY    44  25  47 S3        30.08F
OAK RIDGE      CLOUDY    45  23  42 CALM      30.08F
GATLINBURG     SUNNY     43  23  45 CALM      30.08F
$$

TNZ083-085-099-011800-
SOUTHEAST TENNESSEE

CITY           SKY/WX    TMP DP  RH WIND       PRES   REMARKS
CHATTANOOGA    LGT RAIN  47  36  65 SE6       30.08F
$$

SKY/WX REPORTED AS FAIR MEANS FEW OR NO CLOUDS BELOW
12 THOUSAND FEET.




USA.gov is the U.S. government's official web portal to all federal, state and local government web resources and services.